When you browse on this site, cookies collect data to enhance your experience and personalize the content and advertising you see.
Visit our Privacy Policy to learn more. By continuing to use the site, you agree to this use of cookies and data.
  • In Latvia
  • List of Countries
  • For 7 days
  • Water Temperature
  • Weather Map
  • Weather Widgets
  • user-avatar
    Login

    Hourly Weather Steffisburg

    Today, 18 August, Sunday

    Time Temperature Precipitation Wind Pressure Humidity
    00:00 +19°C° 0 mm 2 mps 695 mmHg 64%
    01:00 +19°C° 0 mm 2 mps 695 mmHg 63%
    02:00 +19°C° 0 mm 2 mps 695 mmHg 63%
    03:00 +18°C° 0 mm 2 mps 695 mmHg 64%
    04:00 +18°C° 0 mm 2 mps 694 mmHg 65%
    05:00 +18°C° 0 mm 2 mps 694 mmHg 66%
    06:00 +19°C° 0 mm 2 mps 694 mmHg 66%
    07:00 +20°C° 0 mm 2 mps 695 mmHg 66%
    08:00 +24°C° 0 mm 2 mps 695 mmHg 59%
    09:00 +26°C° 0 mm 1 mps 695 mmHg 51%
    10:00 +29°C° 0 mm 1 mps 695 mmHg 44%
    11:00 +29°C° 0 mm 1 mps 695 mmHg 42%
    12:00 +30°C° 0 mm 2 mps 696 mmHg 40%
    13:00 +31°C° 0 mm 2 mps 696 mmHg 38%
    14:00 +30°C° 0 mm 2 mps 695 mmHg 41%
    15:00 +30°C° 0 mm 2 mps 695 mmHg 44%
    16:00 +30°C° 0 mm 3 mps 695 mmHg 46%
    17:00 +27°C° 0.4 mm 2 mps 695 mmHg 58%
    18:00 +25°C° 0.4 mm 1 mps 695 mmHg 69%
    19:00 +23°C° 0.4 mm 1 mps 695 mmHg 81%
    20:00 +22°C° 1.8 mm 1 mps 695 mmHg 86%
    21:00 +20°C° 1.8 mm 1 mps 695 mmHg 90%
    22:00 +19°C° 1.8 mm 1 mps 696 mmHg 95%
    23:00 +19°C° 1.3 mm 1 mps 696 mmHg 95%

    Tomorrow, 19 August, Monday

    Time Temperature Precipitation Wind Pressure Humidity
    00:00 +19°C° 1.3 mm 1 mps 696 mmHg 95%
    01:00 +19°C° 1.3 mm 1 mps 696 mmHg 95%
    02:00 +19°C° 1.7 mm 1 mps 696 mmHg 96%
    03:00 +18°C° 1.7 mm 1 mps 696 mmHg 97%
    04:00 +18°C° 1.7 mm 1 mps 696 mmHg 98%
    05:00 +16°C° 1.1 mm 0 mps 696 mmHg 97%
    06:00 +17°C° 1.1 mm 0 mps 697 mmHg 96%
    07:00 +17°C° 1.1 mm 0 mps 697 mmHg 95%
    08:00 +17°C° 0.7 mm 0 mps 697 mmHg 93%
    09:00 +20°C° 0.7 mm 1 mps 697 mmHg 91%
    10:00 +21°C° 0.7 mm 1 mps 697 mmHg 89%
    11:00 +22°C° 0.6 mm 1 mps 697 mmHg 86%
    12:00 +22°C° 0.6 mm 1 mps 698 mmHg 84%
    13:00 +23°C° 0.6 mm 1 mps 698 mmHg 82%
    14:00 +23°C° 0.7 mm 1 mps 698 mmHg 83%
    15:00 +22°C° 0.7 mm 1 mps 698 mmHg 85%
    16:00 +22°C° 0.7 mm 1 mps 697 mmHg 87%
    17:00 +21°C° 0.5 mm 1 mps 697 mmHg 90%
    18:00 +19°C° 0.5 mm 0 mps 698 mmHg 92%
    19:00 +18°C° 0.5 mm 0 mps 698 mmHg 94%
    20:00 +17°C° 0.3 mm 0 mps 698 mmHg 94%
    21:00 +16°C° 0.3 mm 0 mps 698 mmHg 94%
    22:00 +16°C° 0.3 mm 0 mps 698 mmHg 94%
    23:00 +16°C° 0.4 mm 0 mps 698 mmHg 94%

    Day after tomorrow, 20 August, Tuesday

    Time Temperature Precipitation Wind Pressure Humidity
    00:00 +16°C° 0.4 mm 0 mps 698 mmHg 95%
    01:00 +15°C° 0.4 mm 0 mps 698 mmHg 95%
    02:00 +15°C° 0.3 mm 0 mps 698 mmHg 95%
    03:00 +15°C° 0.3 mm 0 mps 698 mmHg 96%
    04:00 +15°C° 0.3 mm 0 mps 698 mmHg 97%
    05:00 +15°C° 0.3 mm 0 mps 698 mmHg 96%
    06:00 +18°C° 0.3 mm 1 mps 698 mmHg 96%
    07:00 +18°C° 0.3 mm 1 mps 698 mmHg 95%
    08:00 +18°C° 0.3 mm 1 mps 698 mmHg 95%
    09:00 +19°C° 0.3 mm 1 mps 698 mmHg 95%
    10:00 +19°C° 0.3 mm 1 mps 698 mmHg 94%
    11:00 +19°C° 1 mm 1 mps 699 mmHg 95%
    12:00 +18°C° 1 mm 1 mps 699 mmHg 96%
    13:00 +17°C° 1 mm 2 mps 699 mmHg 97%
    14:00 +16°C° 2.1 mm 2 mps 699 mmHg 97%
    15:00 +15°C° 2.1 mm 2 mps 699 mmHg 98%
    16:00 +15°C° 2.1 mm 2 mps 699 mmHg 98%
    17:00 +14°C° 1.3 mm 2 mps 699 mmHg 98%
    18:00 +14°C° 1.3 mm 1 mps 700 mmHg 98%
    19:00 +13°C° 1.3 mm 1 mps 700 mmHg 98%
    20:00 +13°C° 2.5 mm 1 mps 700 mmHg 98%
    21:00 +13°C° 2.5 mm 1 mps 700 mmHg 99%
    22:00 +13°C° 2.5 mm 1 mps 700 mmHg 99%
    23:00 +13°C° 1.1 mm 1 mps 700 mmHg 98%

    21 August, Wednesday

    Time Temperature Precipitation Wind Pressure Humidity
    00:00 +12°C° 1.1 mm 1 mps 700 mmHg 98%
    01:00 +12°C° 1.1 mm 1 mps 700 mmHg 98%
    02:00 +12°C° 0.6 mm 1 mps 700 mmHg 98%
    03:00 +12°C° 0.6 mm 1 mps 700 mmHg 98%
    04:00 +12°C° 0.6 mm 1 mps 700 mmHg 98%
    05:00 +12°C° 0 mm 1 mps 700 mmHg 97%
    06:00 +12°C° 0 mm 1 mps 700 mmHg 96%
    07:00 +13°C° 0 mm 1 mps 700 mmHg 95%
    08:00 +14°C° 0 mm 1 mps 700 mmHg 91%
    09:00 +15°C° 0 mm 2 mps 700 mmHg 87%
    10:00 +16°C° 0 mm 2 mps 700 mmHg 83%
    11:00 +17°C° 0 mm 2 mps 700 mmHg 79%
    12:00 +18°C° 0 mm 3 mps 700 mmHg 74%
    13:00 +19°C° 0 mm 3 mps 700 mmHg 70%
    14:00 +19°C° 0 mm 3 mps 700 mmHg 70%
    15:00 +19°C° 0 mm 3 mps 700 mmHg 71%
    16:00 +19°C° 0 mm 3 mps 700 mmHg 71%
    17:00 +19°C° 0 mm 2 mps 700 mmHg 77%
    18:00 +18°C° 0 mm 2 mps 700 mmHg 82%
    19:00 +17°C° 0 mm 2 mps 700 mmHg 87%
    20:00 +16°C° 0 mm 1 mps 700 mmHg 90%
    21:00 +15°C° 0 mm 1 mps 700 mmHg 92%
    22:00 +14°C° 0 mm 1 mps 700 mmHg 95%
    23:00 +14°C° 0 mm 1 mps 700 mmHg 94%

    22 August, Thursday

    Time Temperature Precipitation Wind Pressure Humidity
    00:00 +13°C° 0 mm 1 mps 699 mmHg 93%
    01:00 +13°C° 0 mm 1 mps 699 mmHg 93%
    02:00 +13°C° 0 mm 1 mps 699 mmHg 92%
    03:00 +13°C° 0 mm 1 mps 699 mmHg 92%
    04:00 +12°C° 0 mm 0 mps 699 mmHg 91%
    05:00 +12°C° 0 mm 0 mps 699 mmHg 90%
    06:00 +13°C° 0 mm 0 mps 700 mmHg 89%
    07:00 +14°C° 0 mm 0 mps 700 mmHg 88%
    08:00 +16°C° 0 mm 1 mps 700 mmHg 83%
    09:00 +19°C° 0 mm 1 mps 701 mmHg 77%
    10:00 +21°C° 0 mm 1 mps 701 mmHg 72%
    11:00 +20°C° 0 mm 2 mps 701 mmHg 70%
    12:00 +21°C° 0 mm 2 mps 701 mmHg 68%
    13:00 +23°C° 0 mm 2 mps 701 mmHg 66%
    14:00 +23°C° 0.1 mm 2 mps 700 mmHg 67%
    15:00 +23°C° 0.1 mm 2 mps 700 mmHg 68%
    16:00 +23°C° 0.1 mm 2 mps 700 mmHg 69%
    17:00 +20°C° 0 mm 2 mps 700 mmHg 77%
    18:00 +19°C° 0 mm 2 mps 700 mmHg 85%
    19:00 +18°C° 0 mm 1 mps 700 mmHg 93%
    20:00 +16°C° 0 mm 1 mps 700 mmHg 94%
    21:00 +15°C° 0 mm 1 mps 700 mmHg 94%
    22:00 +15°C° 0 mm 1 mps 700 mmHg 95%
    23:00 +14°C° 0 mm 1 mps 700 mmHg 94%

    23 August, Friday

    Time Temperature Precipitation Wind Pressure Humidity
    00:00 +14°C° 0 mm 1 mps 700 mmHg 94%
    01:00 +14°C° 0 mm 1 mps 700 mmHg 93%
    02:00 +14°C° 0 mm 1 mps 699 mmHg 92%
    03:00 +14°C° 0 mm 1 mps 699 mmHg 91%
    04:00 +14°C° 0 mm 1 mps 699 mmHg 91%
    05:00 +15°C° 0 mm 1 mps 699 mmHg 89%
    06:00 +15°C° 0 mm 1 mps 699 mmHg 87%
    07:00 +15°C° 0 mm 0 mps 700 mmHg 86%
    08:00 +19°C° 0 mm 1 mps 700 mmHg 78%
    09:00 +21°C° 0 mm 1 mps 700 mmHg 71%
    10:00 +24°C° 0 mm 1 mps 700 mmHg 64%
    11:00 +25°C° 0 mm 1 mps 700 mmHg 61%
    12:00 +26°C° 0 mm 1 mps 700 mmHg 59%
    13:00 +27°C° 0 mm 2 mps 700 mmHg 56%
    14:00 +26°C° 0.2 mm 2 mps 700 mmHg 60%
    15:00 +26°C° 0.2 mm 2 mps 700 mmHg 64%
    16:00 +26°C° 0.2 mm 1 mps 699 mmHg 67%
    17:00 +24°C° 0.2 mm 1 mps 699 mmHg 75%
    18:00 +22°C° 0.2 mm 1 mps 699 mmHg 82%
    19:00 +19°C° 0.2 mm 0 mps 698 mmHg 89%
    20:00 +20°C° 0 mm 1 mps 698 mmHg 90%
    21:00 +19°C° 0 mm 1 mps 699 mmHg 90%
    22:00 +18°C° 0 mm 1 mps 699 mmHg 91%
    23:00 +18°C° 0 mm 1 mps 699 mmHg 90%
    Show more